Location: Burgerwiesen
(48.6500°N, 15.6167°E)
Time: 08:08:19
(UTC+00:00)

Cosmos 2221 - Pass Details

Date: 09 April 2020
Orbit: 592 x 616 km, 82.5° (Epoch: 02 June)

Event Time Altitude Azimuth Distance (km) Brightness Sun altitude
Exits shadow 21:46:36 32° 355° (N) 1,072 4.2 -31.2°
Drops below altitude 10° 21:49:01 10° 5° (N) 1,981 5.9 -31.3°
Sets 21:51:16 0° 8° (N) 2,888 6.9 -31.4°
